Regional Weather Roundup
Issued by NWS Burlington, VT

Home | Current Version | Previous Version | Text Only | Print | Product List | Glossary On
Versions: 1 2 3 4 5 6 7 8 9 10 11 12 13 14 15 16 17 18 19 20 21 22 23 24 25 26 27 28 29 30 31 32 33 34 35 36 37 38 39 40 41 42 43 44 45 46 47 48 49 50
000
ASUS41 KBTV 291930
RWRBTV
VERMONT REGIONAL WEATHER ROUNDUP
NATIONAL WEATHER SERVICE BURLINGTON VT
300 PM EDT FRI JUL 29 2016

NOTE: "FAIR" INDICATES FEW OR NO CLOUDS BELOW 12,000 FEET WITH NO
SIGNIFICANT WEATHER AND/OR OBSTRUCTIONS TO VISIBILITY.

* THESE REPORTS ARE NOT UNDER NWS QUALITY CONTROL AND/OR DO NOT
  REPORT WEATHER SUCH AS PRECIPITATION AND FOG.

VTZ001>019-292000-
_____VERMONT_____


CITY           SKY/WX    TMP DP  RH WIND       PRES   REMARKS
BURLINGTON     FAIR      83  56  39 N12       29.91F
MONTPELIER     FAIR      81  57  43 N8        29.96S
MORRISVILLE    FAIR      80  58  46 NW7       29.93S
ST. JOHNSBURY*   N/A     84  55  36 MISG      29.88F
LYNDONVILLE*   FAIR      79  55  43 W5        29.94S
MIDDLEBURY*    FAIR      82  49  31 N12       29.89F
RUTLAND*       PTSUNNY   80  64  58 VRB6      29.89F
SPRINGFIELD    FAIR      84  62  47 N10       29.87F
HIGHGATE*      FAIR      78  60  53 N8        29.93S
NEWPORT*       PTSUNNY   76  60  56 NW10      29.94S
BENNINGTON     PTSUNNY   81  65  58 VRB5      29.88F
GALLUP MILLS*    N/A     77 N/A N/A MISG        N/A

_____LAKE CHAMPLAIN_____


CITY           SKY/WX    TMP DP  RH WIND       PRES   REMARKS
COLCHESTER RF*   N/A     77  63  61 NE15        N/A

$$

NYZ007-026>031-035-052-083-087-292000-
_____NORTHERN NEW YORK_____


CITY           SKY/WX    TMP DP  RH WIND       PRES   REMARKS
PLATTSBURGH    FAIR      79  64  60 NE12      29.92S
SARANAC LAKE   FAIR      78  51  38 NE7       29.96S
MASSENA        FAIR      78  57  48 N6        29.96S
OGDENSBURG*    MOSUNNY   82  55  39 N6        29.96S
POTSDAM*       MOSUNNY   79  63  57 NE7       29.96S
WATERTOWN      FAIR      86  52  30 NE10      29.93S
FT DRUM        MOSUNNY   81  57  43 N10G17    29.94S
ALBANY         PTSUNNY   84  63  49 N13       29.85F
GLENS FALLS    FAIR      85  58  39 NE10      29.86F

$$
NHZ002-005-011-292000-
_____NEW HAMPSHIRE_____


CITY           SKY/WX    TMP DP  RH WIND       PRES   REMARKS
LEBANON        FAIR      87  63  44 VRB7      29.87F
KEENE          LGT RAIN  77  68  73 CALM      29.87R
MT WASHINGTON  PTSUNNY   57  52  82 W9          N/A  FOG
PLYMOUTH       FAIR      75  67  76 CALM      29.88F
WHITEFIELD     FAIR      81  61  50 N6        29.90F

$$

_____REGIONAL QUEBEC LOCATIONS_____


CITY           SKY/WX    TMP DP  RH WIND       PRES   REMARKS
MONTREAL       PTSUNNY   77  57  50 W16       29.93F
QUEBEC CITY    PTSUNNY   77  54  44 W9        29.91F
SHERBROOKE     MOSUNNY   79  54  41 NW8       29.92S

_____REGIONAL ONTARIO LOCATIONS_____


CITY           SKY/WX    TMP DP  RH WIND       PRES   REMARKS
OTTAWA         PTSUNNY   77  55  47 N12       29.98S

______KEY______
VSB  - VISIBILITY IN MILES
WCI  - WIND CHILL INDEX
HX   - HEAT INDEX
$$
NNNN




USA.gov is the U.S. government's official web portal to all federal, state and local government web resources and services.